DLH519 MROC-EDDF

Flight info

Callsign DLH519
Flight time N/A
Altitude 34000
Route NANJO4R RADON UB767 GCM UM330 ULBAS/N0471F360 UM330 ENAMO/N0469F350 DCT GRATX/M080F350 DCT GALVN DCT BEXUM/M080F370 DCT DRYED M201 CARAC DCT GRUPI/N0466F370 DCT NICSO/M080F380 NATW GISTI/N0457F390 DCT ENJEX DCT ADHAV DCT AGCAT DCT AXNEF DCT ZIPWE DCT OZZIL DCT SAWPE Q63 CPT UL9 BIG L607 KONAN DCT KOK UL607 SPI T180 NIVNU T847 IMCOM IMCOM1B
Aircraft A343/H-SDE2E3FGHIJ4J5M1RWXY/LB1D1

Departure

Time 2026-05-04 00:13
Airport Juan Santamaría International Airport (MROC)

Arrival

Time N/A
Airport Frankfurt Main Airport (EDDF)
Time Latitude Longitude Altitude Speed Heading
2026-05-03 23:55 9.99704 -84.20449 3038 ft 0 kts 339°
2026-05-04 00:00 9.99694 -84.20445 3040 ft 4 kts 345°
2026-05-04 00:00 9.99668 -84.20443 3038 ft 4 kts
2026-05-04 00:00 9.99642 -84.20448 3040 ft 3 kts 14°
2026-05-04 00:01 9.99635 -84.20449 3039 ft 0 kts 13°
2026-05-04 00:05 9.99638 -84.20448 3038 ft 3 kts 17°
2026-05-04 00:05 9.99657 -84.20423 3037 ft 6 kts 63°
2026-05-04 00:05 9.99673 -84.20388 3038 ft 4 kts 68°
2026-05-04 00:06 9.99686 -84.20355 3037 ft 9 kts 68°
2026-05-04 00:06 9.99716 -84.20275 3038 ft 13 kts 70°
2026-05-04 00:06 9.99742 -84.20203 3037 ft 7 kts 69°
2026-05-04 00:06 9.99739 -84.20173 3037 ft 2 kts 110°
2026-05-04 00:07 9.99737 -84.20170 3039 ft 0 kts 115°
2026-05-04 00:07 9.99725 -84.20152 3040 ft 5 kts 127°
2026-05-04 00:07 9.99704 -84.20097 3041 ft 11 kts 93°
2026-05-04 00:07 9.99714 -84.20020 3041 ft 11 kts 90°
2026-05-04 00:08 9.99674 -84.19972 3041 ft 9 kts 156°
2026-05-04 00:08 9.99612 -84.19943 3039 ft 11 kts 152°
2026-05-04 00:08 9.99592 -84.19890 3040 ft 6 kts 87°
2026-05-04 00:08 9.99611 -84.19825 3041 ft 14 kts 70°
2026-05-04 00:09 9.99651 -84.19722 3046 ft 14 kts 68°
2026-05-04 00:09 9.99677 -84.19654 3049 ft 7 kts 70°
2026-05-04 00:09 9.99691 -84.19614 3053 ft 8 kts 70°
2026-05-04 00:09 9.99715 -84.19549 3056 ft 8 kts 66°
2026-05-04 00:10 9.99740 -84.19530 3056 ft 2 kts 12°
2026-05-04 00:10 9.99743 -84.19530 3055 ft 0 kts
2026-05-04 00:10 9.99774 -84.19531 3058 ft 9 kts 353°
2026-05-04 00:11 9.99835 -84.19547 3059 ft 9 kts 341°
2026-05-04 00:11 9.99876 -84.19581 3055 ft 7 kts 286°
2026-05-04 00:11 9.99869 -84.19609 3055 ft 0 kts 249°
2026-05-04 00:12 9.99795 -84.19804 3046 ft 59 kts 249°
2026-05-04 00:13 9.99585 -84.20369 3044 ft 109 kts 249°
2026-05-04 00:13 9.99259 -84.21240 3001 ft 153 kts 249°
2026-05-04 00:13 9.98838 -84.22362 3024 ft 182 kts 249°
2026-05-04 00:13 9.98417 -84.23406 3966 ft 151 kts 248°
2026-05-04 00:14 9.97988 -84.24471 4153 ft 176 kts 247°
2026-05-04 00:14 9.97457 -84.25664 4438 ft 193 kts 239°
2026-05-04 00:14 9.96400 -84.26515 4817 ft 204 kts 206°
2026-05-04 00:14 9.95328 -84.27483 5194 ft 212 kts 243°
2026-05-04 00:15 9.95135 -84.28951 5452 ft 218 kts 286°
2026-05-04 00:15 9.95979 -84.30228 5607 ft 230 kts 327°
2026-05-04 00:15 9.97548 -84.30695 5775 ft 247 kts
2026-05-04 00:15 9.99303 -84.30473 6133 ft 259 kts
2026-05-04 00:16 10.01108 -84.30515 6658 ft 266 kts 352°
2026-05-04 00:16 10.02920 -84.30994 7181 ft 273 kts 341°
2026-05-04 00:16 10.04674 -84.31770 7746 ft 278 kts 334°
2026-05-04 00:16 10.06388 -84.32721 8316 ft 283 kts 331°
2026-05-04 00:17 10.08089 -84.33771 8882 ft 286 kts 330°
2026-05-04 00:17 10.09912 -84.34596 9406 ft 288 kts 348°
2026-05-04 00:17 10.11896 -84.34676 9900 ft 289 kts 13°
2026-05-04 00:17 10.13821 -84.34029 10322 ft 296 kts 24°
2026-05-04 00:18 10.15725 -84.33177 10563 ft 309 kts 25°
2026-05-04 00:18 10.17742 -84.32265 10812 ft 322 kts 25°
2026-05-04 00:18 10.19815 -84.31333 11074 ft 334 kts 25°
2026-05-04 00:18 10.22000 -84.30360 11313 ft 346 kts 25°
2026-05-04 00:19 10.24233 -84.29372 11554 ft 358 kts 25°
2026-05-04 00:19 10.26557 -84.28348 11812 ft 368 kts 25°
2026-05-04 00:19 10.28945 -84.27296 12171 ft 375 kts 26°
2026-05-04 00:19 10.31292 -84.26165 12567 ft 379 kts 28°
2026-05-04 00:20 10.33674 -84.24966 12976 ft 382 kts 28°
2026-05-04 00:20 10.36078 -84.23760 13348 ft 386 kts 28°
2026-05-04 00:20 10.38502 -84.22553 13750 ft 390 kts 27°
2026-05-04 00:20 10.40928 -84.21351 14148 ft 394 kts 27°
2026-05-04 00:21 10.43410 -84.20124 14546 ft 397 kts 27°
2026-05-04 00:21 10.45894 -84.18896 14938 ft 400 kts 27°
2026-05-04 00:21 10.48420 -84.17647 15346 ft 403 kts 27°
2026-05-04 00:21 10.50969 -84.16388 15736 ft 407 kts 27°
2026-05-04 00:22 10.53515 -84.15131 16123 ft 410 kts 27°
2026-05-04 00:22 10.56072 -84.13869 16489 ft 413 kts 27°
2026-05-04 00:22 10.58680 -84.12582 16859 ft 417 kts 27°
2026-05-04 00:22 10.61303 -84.11286 17255 ft 420 kts 27°
2026-05-04 00:23 10.63952 -84.09979 17638 ft 423 kts 27°
2026-05-04 00:23 10.66581 -84.08681 17991 ft 427 kts 27°
2026-05-04 00:23 10.69293 -84.07389 18362 ft 430 kts 23°
2026-05-04 00:23 10.72144 -84.06405 18763 ft 432 kts 17°
2026-05-04 00:24 10.75041 -84.05634 19156 ft 435 kts 14°
2026-05-04 00:24 10.78003 -84.04951 19550 ft 437 kts 12°
2026-05-04 00:24 10.80994 -84.04306 19940 ft 439 kts 12°
2026-05-04 00:24 10.84011 -84.03661 20306 ft 441 kts 12°
2026-05-04 00:25 10.87017 -84.03009 20639 ft 443 kts 12°
2026-05-04 00:25 10.90009 -84.02348 20979 ft 445 kts 13°
2026-05-04 00:25 10.93050 -84.01664 21325 ft 447 kts 13°
2026-05-04 00:25 10.96110 -84.00968 21670 ft 449 kts 13°
2026-05-04 00:26 10.99140 -84.00274 21966 ft 451 kts 13°
2026-05-04 00:26 11.02221 -83.99569 22267 ft 454 kts 13°
2026-05-04 00:26 11.05335 -83.98856 22522 ft 457 kts 13°
2026-05-04 00:26 11.08422 -83.98148 22837 ft 459 kts 13°
2026-05-04 00:27 11.11565 -83.97429 23140 ft 461 kts 13°
2026-05-04 00:27 11.14673 -83.96718 23409 ft 463 kts 13°
2026-05-04 00:27 11.17836 -83.95994 23684 ft 465 kts 13°
2026-05-04 00:27 11.20976 -83.95275 23988 ft 466 kts 13°
2026-05-04 00:28 11.24175 -83.94541 24260 ft 468 kts 13°
2026-05-04 00:28 11.27348 -83.93815 24530 ft 470 kts 13°
2026-05-04 00:28 11.30551 -83.93084 24813 ft 471 kts 13°
2026-05-04 00:28 11.33757 -83.92353 25061 ft 473 kts 13°
2026-05-04 00:29 11.36937 -83.91625 25333 ft 474 kts 13°
2026-05-04 00:29 11.40173 -83.90882 25583 ft 476 kts 13°
2026-05-04 00:29 11.43413 -83.90137 25838 ft 477 kts 13°
2026-05-04 00:29 11.46675 -83.89388 26077 ft 479 kts 13°
2026-05-04 00:30 11.49908 -83.88646 26309 ft 481 kts 13°
2026-05-04 00:30 11.53191 -83.87895 26575 ft 482 kts 13°
2026-05-04 00:30 11.56447 -83.87148 26822 ft 483 kts 13°
2026-05-04 00:30 11.59738 -83.86392 27077 ft 485 kts 13°
2026-05-04 00:31 11.63010 -83.85640 27326 ft 486 kts 13°
2026-05-04 00:31 11.66330 -83.84878 27537 ft 487 kts 13°
2026-05-04 00:31 11.69656 -83.84115 27747 ft 489 kts 12°
2026-05-04 00:31 11.72955 -83.83361 27960 ft 491 kts 13°
2026-05-04 00:32 11.76323 -83.82587 28213 ft 492 kts 13°
2026-05-04 00:32 11.79678 -83.81815 28443 ft 493 kts 13°
2026-05-04 00:32 11.82989 -83.81053 28669 ft 494 kts 13°
2026-05-04 00:32 11.86365 -83.80276 28865 ft 496 kts 13°
2026-05-04 00:33 11.89704 -83.79508 29064 ft 497 kts 13°
2026-05-04 00:33 11.96472 -83.77950 29639 ft 496 kts 12°
2026-05-04 00:33 11.99800 -83.77184 29917 ft 495 kts 12°
2026-05-04 00:34 12.03195 -83.76455 30191 ft 494 kts 11°
2026-05-04 00:34 12.06555 -83.75822 30441 ft 494 kts 10°
2026-05-04 00:34 12.09957 -83.75219 30673 ft 494 kts
2026-05-04 00:34 12.13319 -83.74630 30875 ft 495 kts
2026-05-04 00:35 12.16729 -83.74024 31109 ft 495 kts 10°
2026-05-04 00:35 12.20093 -83.73415 31340 ft 494 kts 10°
2026-05-04 00:35 12.23501 -83.72790 31541 ft 494 kts 10°
2026-05-04 00:35 12.26901 -83.72161 31753 ft 494 kts 10°
2026-05-04 00:36 12.30239 -83.71539 31916 ft 494 kts 10°
2026-05-04 00:36 12.33633 -83.70905 32141 ft 494 kts 10°
2026-05-04 00:36 12.37019 -83.70273 32306 ft 494 kts 10°
2026-05-04 00:36 12.40392 -83.69643 32502 ft 494 kts 10°
2026-05-04 00:37 12.43802 -83.69006 32673 ft 494 kts 10°
2026-05-04 00:37 12.47185 -83.68375 32868 ft 494 kts 10°
2026-05-04 00:37 12.50535 -83.67751 33016 ft 495 kts 10°
2026-05-04 00:37 12.53932 -83.67119 33220 ft 493 kts 10°
2026-05-04 00:38 12.57308 -83.66489 33391 ft 493 kts 10°
2026-05-04 00:38 12.60667 -83.65861 33528 ft 493 kts 10°
2026-05-04 00:38 12.64067 -83.65225 33697 ft 493 kts 10°
2026-05-04 00:38 12.67423 -83.64597 33850 ft 493 kts 10°
2026-05-04 00:39 12.70806 -83.63965 33991 ft 493 kts
2026-05-04 00:39 12.74156 -83.63339 34167 ft 492 kts
2026-05-04 00:39 12.77547 -83.62705 34311 ft 492 kts
2026-05-04 00:39 12.80932 -83.62072 34455 ft 492 kts
2026-05-04 00:40 12.84271 -83.61449 34621 ft 492 kts
2026-05-04 00:40 12.87625 -83.60821 34764 ft 490 kts
2026-05-04 00:40 12.90996 -83.60190 34871 ft 491 kts
2026-05-04 00:41 12.97753 -83.58925 34908 ft 494 kts
2026-05-04 00:41 13.04508 -83.57660 34907 ft 493 kts
2026-05-04 00:42 13.11234 -83.56398 34907 ft 492 kts
2026-05-04 00:42 13.17954 -83.55135 34906 ft 492 kts
2026-05-04 00:43 13.24686 -83.53872 34899 ft 492 kts
2026-05-04 00:43 13.31457 -83.52599 34897 ft 492 kts
2026-05-04 00:44 13.38145 -83.51342 34897 ft 492 kts
2026-05-04 00:44 13.44872 -83.50080 34897 ft 492 kts
2026-05-04 00:45 13.51602 -83.48815 34897 ft 492 kts
2026-05-04 00:45 13.58325 -83.47548 34889 ft 491 kts
2026-05-04 00:46 13.65069 -83.46276 34888 ft 491 kts
2026-05-04 00:46 13.71776 -83.45013 34887 ft 491 kts
2026-05-04 00:47 13.78503 -83.43745 34888 ft 491 kts
2026-05-04 00:47 13.84124 -83.42684 34888 ft 491 kts
2026-05-04 00:48 13.90827 -83.41420 34888 ft 491 kts
2026-05-04 00:48 13.97582 -83.40140 34889 ft 491 kts
2026-05-04 00:49 14.04270 -83.38761 34887 ft 492 kts 15°
2026-05-04 00:49 14.10782 -83.36524 34888 ft 493 kts 18°
2026-05-04 00:50 14.17220 -83.34126 34888 ft 493 kts 19°
2026-05-04 00:50 14.23639 -83.31701 34888 ft 493 kts 19°
2026-05-04 00:51 14.30108 -83.29266 34888 ft 493 kts 19°
2026-05-04 00:51 14.36552 -83.26850 34888 ft 493 kts 19°
2026-05-04 00:52 14.42987 -83.24436 34888 ft 493 kts 19°
2026-05-04 00:52 14.49429 -83.22022 34888 ft 494 kts 18°
2026-05-04 00:53 14.55925 -83.19584 34888 ft 494 kts 18°
2026-05-04 00:53 14.62352 -83.17168 34888 ft 493 kts 18°
2026-05-04 00:54 14.68825 -83.14735 34897 ft 493 kts 18°
2026-05-04 00:54 14.75263 -83.12314 34898 ft 493 kts 18°
2026-05-04 00:55 14.81703 -83.09894 34898 ft 493 kts 18°
2026-05-04 00:55 14.88142 -83.07473 34898 ft 493 kts 18°
2026-05-04 00:56 14.94597 -83.05040 34898 ft 493 kts 18°
2026-05-04 00:56 15.01042 -83.02608 34905 ft 493 kts 18°
2026-05-04 00:57 15.07492 -83.00173 34908 ft 493 kts 18°
2026-05-04 00:57 15.13965 -82.97731 34907 ft 493 kts 18°
2026-05-04 00:58 15.20421 -82.95295 34907 ft 493 kts 18°
2026-05-04 00:58 15.26832 -82.92873 34907 ft 494 kts 18°
2026-05-04 00:59 15.33311 -82.90427 34912 ft 493 kts 18°
2026-05-04 00:59 15.39739 -82.87990 34916 ft 493 kts 18°
2026-05-04 01:00 15.46201 -82.85547 34916 ft 493 kts 18°
2026-05-04 01:00 15.52653 -82.83101 34916 ft 493 kts 18°
2026-05-04 01:01 15.59093 -82.80661 34917 ft 493 kts 18°
2026-05-04 01:01 15.65534 -82.78219 34916 ft 493 kts 18°
2026-05-04 01:02 15.71954 -82.75786 34925 ft 493 kts 18°
2026-05-04 01:02 15.78405 -82.73340 34925 ft 493 kts 18°
2026-05-04 01:03 15.84878 -82.70882 34925 ft 493 kts 18°
2026-05-04 01:03 15.91310 -82.68436 34925 ft 493 kts 18°
2026-05-04 01:04 15.97727 -82.65994 34926 ft 493 kts 18°
2026-05-04 01:04 16.04155 -82.63548 34926 ft 493 kts 18°
2026-05-04 01:05 16.10594 -82.61093 34925 ft 492 kts 18°
2026-05-04 01:05 16.17048 -82.58635 34925 ft 492 kts 18°
2026-05-04 01:06 16.23449 -82.56191 34925 ft 492 kts 18°
2026-05-04 01:06 16.29911 -82.53725 34925 ft 492 kts 18°
2026-05-04 01:07 16.36318 -82.51279 34931 ft 492 kts 18°
2026-05-04 01:07 16.42753 -82.48819 34935 ft 492 kts 18°
2026-05-04 01:08 16.49156 -82.46365 34934 ft 492 kts 18°
2026-05-04 01:08 16.55582 -82.43907 34934 ft 492 kts 18°
2026-05-04 01:09 16.62019 -82.41445 34942 ft 491 kts 18°
2026-05-04 01:09 16.68411 -82.38994 34954 ft 491 kts 18°
2026-05-04 01:10 16.74843 -82.36524 34961 ft 491 kts 18°
2026-05-04 01:10 16.81263 -82.34059 34963 ft 491 kts 18°
2026-05-04 01:11 16.87656 -82.31604 34964 ft 490 kts 18°
2026-05-04 01:11 16.94060 -82.29145 34968 ft 490 kts 18°
2026-05-04 01:12 17.00440 -82.26691 34971 ft 489 kts 18°
2026-05-04 01:12 17.06791 -82.24246 34972 ft 488 kts 17°
2026-05-04 01:13 17.13195 -82.21778 34971 ft 488 kts 18°
2026-05-04 01:13 17.19557 -82.19328 34978 ft 488 kts 18°
2026-05-04 01:14 17.25905 -82.16877 34980 ft 487 kts 18°
2026-05-04 01:14 17.32277 -82.14415 34985 ft 486 kts 18°
2026-05-04 01:15 17.38620 -82.11959 34986 ft 486 kts 17°
2026-05-04 01:15 17.44947 -82.09513 35003 ft 485 kts 17°
2026-05-04 01:16 17.51304 -82.07054 34986 ft 485 kts 17°
2026-05-04 01:16 17.57614 -82.04610 35003 ft 484 kts 17°
2026-05-04 01:17 17.63910 -82.02164 35000 ft 484 kts 17°
2026-05-04 01:17 17.70243 -81.99691 34994 ft 483 kts 18°
2026-05-04 01:18 17.76541 -81.97233 35001 ft 483 kts 17°
2026-05-04 01:18 17.82813 -81.94783 34999 ft 483 kts 17°
2026-05-04 01:19 17.89101 -81.92328 35003 ft 483 kts 17°
2026-05-04 01:19 17.95415 -81.89860 35013 ft 483 kts 17°
2026-05-04 01:20 18.01689 -81.87405 35006 ft 482 kts 17°
2026-05-04 01:20 18.07966 -81.84951 35014 ft 483 kts 17°
2026-05-04 01:21 18.14289 -81.82476 35008 ft 483 kts 17°
2026-05-04 01:21 18.20563 -81.80013 35003 ft 483 kts 17°
2026-05-04 01:22 18.26884 -81.77531 35006 ft 483 kts 18°
2026-05-04 01:22 18.33183 -81.75054 35009 ft 483 kts 17°
2026-05-04 01:23 18.39476 -81.72583 35014 ft 484 kts 17°
2026-05-04 01:23 18.45776 -81.70107 35016 ft 484 kts 17°
2026-05-04 01:24 18.52076 -81.67629 35014 ft 485 kts 17°
2026-05-04 01:24 18.58387 -81.65142 35014 ft 485 kts 17°
2026-05-04 01:25 18.64739 -81.62636 35013 ft 486 kts 17°
2026-05-04 01:25 18.71080 -81.60133 35018 ft 486 kts 17°
2026-05-04 01:26 18.77416 -81.57632 35022 ft 487 kts 17°
2026-05-04 01:26 18.83745 -81.55128 35021 ft 487 kts 17°
2026-05-04 01:27 18.90091 -81.52620 35017 ft 488 kts 17°
2026-05-04 01:27 18.95407 -81.50519 35016 ft 488 kts 17°
2026-05-04 01:28 19.02820 -81.47583 35014 ft 489 kts 17°
2026-05-04 01:28 19.08132 -81.45476 35013 ft 488 kts 17°
2026-05-04 01:29 19.14493 -81.42951 35018 ft 489 kts 17°
2026-05-04 01:29 19.20851 -81.40427 35014 ft 489 kts 17°
2026-05-04 01:30 19.27205 -81.37755 35019 ft 493 kts 24°
2026-05-04 01:30 19.32873 -81.33636 35019 ft 498 kts 36°
2026-05-04 01:31 19.38181 -81.28859 35022 ft 500 kts 38°
2026-05-04 01:31 19.43399 -81.24016 35015 ft 500 kts 38°
2026-05-04 01:32 19.48639 -81.19162 35019 ft 500 kts 38°
2026-05-04 01:32 19.53879 -81.14341 35018 ft 500 kts 38°
2026-05-04 01:33 19.59144 -81.09502 35013 ft 501 kts 38°
2026-05-04 01:33 19.64409 -81.04657 35022 ft 501 kts 38°
2026-05-04 01:34 19.69692 -80.99795 35022 ft 500 kts 38°
2026-05-04 01:34 19.74937 -80.94961 35025 ft 501 kts 38°
2026-05-04 01:35 19.80201 -80.90098 35028 ft 501 kts 38°
2026-05-04 01:35 19.85449 -80.85252 35028 ft 501 kts 38°
2026-05-04 01:36 19.90710 -80.80387 35029 ft 501 kts 38°
2026-05-04 01:36 19.96004 -80.75490 35027 ft 501 kts 38°
2026-05-04 01:37 20.01252 -80.70633 35028 ft 501 kts 38°
2026-05-04 01:37 20.06511 -80.65757 35026 ft 503 kts 38°
2026-05-04 01:38 20.11782 -80.60873 35029 ft 503 kts 38°
2026-05-04 01:38 20.17073 -80.55958 35029 ft 504 kts 38°
2026-05-04 01:39 20.22328 -80.51068 35029 ft 503 kts 38°
2026-05-04 01:39 20.27591 -80.46167 35027 ft 502 kts 38°
2026-05-04 01:40 20.32876 -80.41249 35026 ft 503 kts 38°
2026-05-04 01:40 20.38146 -80.36337 35026 ft 503 kts 38°
2026-05-04 01:41 20.43396 -80.31437 35028 ft 503 kts 38°
2026-05-04 01:41 20.48663 -80.26521 35026 ft 503 kts 38°
2026-05-04 01:42 20.53933 -80.21603 35028 ft 503 kts 38°
2026-05-04 01:42 20.59207 -80.16665 35026 ft 504 kts 38°
2026-05-04 01:43 20.64457 -80.11736 35034 ft 504 kts 38°
2026-05-04 01:43 20.69736 -80.06778 35036 ft 504 kts 38°
2026-05-04 01:44 20.74997 -80.01837 35034 ft 505 kts 38°
2026-05-04 01:44 20.80267 -79.96884 35035 ft 505 kts 38°
2026-05-04 01:45 20.85537 -79.91923 35038 ft 505 kts 38°
2026-05-04 01:45 20.93467 -79.84450 35035 ft 505 kts 38°
2026-05-04 01:46 20.98741 -79.79475 35037 ft 505 kts 38°
2026-05-04 01:46 21.04008 -79.74500 35037 ft 506 kts 38°
2026-05-04 01:47 21.09270 -79.69532 35042 ft 506 kts 38°
2026-05-04 01:47 21.14572 -79.64518 35045 ft 507 kts 38°
2026-05-04 01:48 21.19848 -79.59519 35045 ft 507 kts 38°
2026-05-04 01:48 21.25148 -79.54498 35045 ft 507 kts 38°
2026-05-04 01:49 21.30426 -79.49491 35046 ft 508 kts 38°
2026-05-04 01:49 21.35705 -79.44477 35046 ft 508 kts 38°
2026-05-04 01:50 21.40978 -79.39466 35055 ft 508 kts 38°
2026-05-04 01:50 21.46300 -79.34412 35056 ft 508 kts 38°
2026-05-04 01:51 21.51589 -79.29376 35055 ft 508 kts 38°
2026-05-04 01:51 21.56858 -79.24350 35055 ft 509 kts 38°
2026-05-04 01:52 21.62171 -79.19278 35055 ft 509 kts 38°
2026-05-04 01:52 21.67467 -79.14222 35053 ft 510 kts 38°
2026-05-04 01:53 21.72763 -79.09170 35055 ft 510 kts 38°
2026-05-04 01:53 21.78065 -79.04092 35055 ft 510 kts 38°
2026-05-04 01:54 21.83376 -78.99002 35055 ft 510 kts 38°
2026-05-04 01:54 21.88598 -78.93995 35054 ft 510 kts 38°
2026-05-04 01:55 21.93879 -78.88928 35052 ft 511 kts 38°
2026-05-04 01:55 21.99202 -78.83811 35055 ft 511 kts 39°
2026-05-04 01:56 22.04510 -78.78738 35054 ft 513 kts 37°
2026-05-04 01:56 22.09924 -78.73729 35067 ft 515 kts 37°
2026-05-04 01:57 22.15336 -78.68743 35061 ft 515 kts 37°
2026-05-04 01:57 22.20810 -78.63668 35064 ft 516 kts 37°
2026-05-04 01:58 22.26249 -78.58605 35063 ft 516 kts 37°
2026-05-04 01:58 22.31677 -78.53549 35062 ft 516 kts 37°
2026-05-04 01:59 22.37080 -78.48511 35064 ft 516 kts 37°
2026-05-04 01:59 22.42467 -78.43480 35063 ft 516 kts 37°
2026-05-04 02:00 22.47964 -78.38342 35065 ft 517 kts 37°
2026-05-04 02:00 22.53394 -78.33260 35062 ft 517 kts 37°
2026-05-04 02:01 22.58820 -78.28176 35067 ft 517 kts 37°
2026-05-04 02:01 22.64239 -78.23092 35065 ft 517 kts 38°
2026-05-04 02:02 22.69698 -78.17969 35068 ft 517 kts 37°
2026-05-04 02:02 22.75110 -78.12887 35054 ft 517 kts 38°
2026-05-04 02:03 22.80538 -78.07778 35055 ft 517 kts 37°
2026-05-04 02:03 22.85986 -78.02644 35055 ft 518 kts 37°
2026-05-04 02:04 22.91399 -77.97538 35055 ft 518 kts 38°
2026-05-04 02:04 22.96835 -77.92402 35053 ft 518 kts 38°
2026-05-04 02:05 23.02263 -77.87271 35055 ft 518 kts 38°
2026-05-04 02:05 23.07718 -77.82114 35055 ft 519 kts 37°
2026-05-04 02:06 23.13172 -77.76949 35055 ft 519 kts 37°
2026-05-04 02:06 23.18610 -77.71794 35055 ft 519 kts 38°
2026-05-04 02:07 23.24036 -77.66638 35046 ft 519 kts 37°
2026-05-04 02:07 23.29461 -77.61480 35046 ft 520 kts 37°
2026-05-04 02:08 23.34900 -77.56309 35046 ft 520 kts 38°
2026-05-04 02:08 23.40338 -77.51130 35045 ft 519 kts 38°
2026-05-04 02:09 23.44900 -77.46782 35046 ft 520 kts 37°
2026-05-04 02:09 23.50334 -77.41598 35054 ft 521 kts 38°
2026-05-04 02:10 23.55796 -77.36380 35045 ft 521 kts 38°
2026-05-04 02:10 23.61306 -77.31315 35045 ft 520 kts 35°
2026-05-04 02:11 23.66971 -77.26374 35047 ft 520 kts 35°
2026-05-04 02:11 23.72618 -77.21443 35045 ft 520 kts 35°
2026-05-04 02:12 23.78227 -77.16490 35046 ft 520 kts 35°
2026-05-04 02:12 23.83856 -77.11493 35046 ft 520 kts 35°
2026-05-04 02:13 23.89448 -77.06523 35045 ft 520 kts 35°
2026-05-04 02:13 23.95068 -77.01518 35045 ft 520 kts 35°
2026-05-04 02:14 24.00659 -76.96536 35046 ft 519 kts 35°
2026-05-04 02:14 24.06265 -76.91536 35048 ft 522 kts 35°
2026-05-04 02:15 24.11896 -76.86505 35046 ft 524 kts 35°
2026-05-04 02:15 24.17567 -76.81436 35046 ft 524 kts 35°
2026-05-04 02:16 24.23195 -76.76394 35054 ft 524 kts 35°
2026-05-04 02:16 24.28838 -76.71334 35055 ft 523 kts 35°
2026-05-04 02:17 24.34479 -76.66278 35055 ft 523 kts 35°
2026-05-04 02:17 24.39237 -76.62003 35054 ft 524 kts 36°
2026-05-04 02:18 24.44849 -76.56953 35055 ft 523 kts 35°
2026-05-04 02:18 24.50489 -76.51874 35055 ft 524 kts 35°
2026-05-04 02:19 24.56130 -76.46793 35055 ft 525 kts 35°
2026-05-04 02:19 24.61779 -76.41694 35055 ft 524 kts 36°
2026-05-04 02:20 24.67389 -76.36621 35055 ft 525 kts 36°
2026-05-04 02:20 24.73028 -76.31523 35047 ft 525 kts 36°
2026-05-04 02:21 24.78673 -76.26409 35046 ft 525 kts 36°
2026-05-04 02:21 24.84317 -76.21288 35046 ft 525 kts 36°
2026-05-04 02:22 24.89966 -76.16160 35046 ft 526 kts 36°
2026-05-04 02:22 24.95579 -76.11054 35045 ft 526 kts 36°
2026-05-04 02:23 25.01255 -76.05888 35045 ft 527 kts 36°
2026-05-04 02:23 25.06888 -76.00753 35050 ft 526 kts 36°
2026-05-04 02:24 25.12558 -75.95579 35054 ft 527 kts 36°
2026-05-04 02:24 25.18192 -75.90431 35053 ft 527 kts 36°
2026-05-04 02:25 25.23835 -75.85271 35056 ft 528 kts 36°
2026-05-04 02:25 25.29490 -75.80094 35055 ft 529 kts 36°
2026-05-04 02:26 25.35145 -75.74912 35054 ft 529 kts 36°
2026-05-04 02:26 25.40805 -75.69715 35056 ft 529 kts 36°
2026-05-04 02:27 25.46487 -75.64485 35055 ft 530 kts 36°
2026-05-04 02:27 25.52149 -75.59265 35054 ft 530 kts 36°
2026-05-04 02:28 25.57813 -75.54048 35055 ft 530 kts 36°
2026-05-04 02:28 25.63481 -75.48819 35055 ft 530 kts 36°
2026-05-04 02:29 25.69173 -75.43562 35056 ft 530 kts 36°
2026-05-04 02:29 25.74826 -75.38324 35054 ft 530 kts 36°
2026-05-04 02:30 25.80480 -75.33090 35055 ft 530 kts 36°
2026-05-04 02:30 25.86141 -75.27846 35053 ft 530 kts 36°
2026-05-04 02:31 25.91805 -75.22583 35055 ft 529 kts 36°
2026-05-04 02:31 25.97435 -75.17347 35055 ft 529 kts 36°
2026-05-04 02:32 26.03081 -75.12085 35050 ft 530 kts 36°
2026-05-04 02:32 26.08733 -75.06817 35056 ft 533 kts 36°
2026-05-04 02:33 26.14452 -75.01480 35055 ft 534 kts 36°
2026-05-04 02:33 26.20136 -74.96165 35055 ft 535 kts 36°
2026-05-04 02:34 26.25807 -74.90858 35054 ft 535 kts 37°
2026-05-04 02:34 26.31532 -74.85495 35054 ft 535 kts 37°
2026-05-04 02:35 26.37216 -74.80158 35055 ft 535 kts 37°
2026-05-04 02:35 26.42892 -74.74818 35054 ft 535 kts 37°
2026-05-04 02:36 26.48606 -74.69438 35056 ft 535 kts 37°
2026-05-04 02:36 26.54305 -74.64069 35055 ft 535 kts 37°
2026-05-04 02:37 26.59963 -74.58726 35055 ft 535 kts 37°
2026-05-04 02:37 26.65673 -74.53330 35055 ft 536 kts 37°
2026-05-04 02:38 26.71361 -74.47947 35054 ft 536 kts 37°
2026-05-04 02:38 26.77036 -74.42569 35056 ft 536 kts 37°
2026-05-04 02:39 26.82720 -74.37177 35056 ft 537 kts 37°
2026-05-04 02:39 26.88427 -74.31761 35054 ft 538 kts 37°
2026-05-04 02:40 26.91439 -74.29282 35054 ft 532 kts 26°
2026-05-04 02:40 26.94644 -74.27283 35057 ft 529 kts 22°
2026-05-04 02:40 27.01237 -74.23551 35285 ft 528 kts 21°
2026-05-04 02:41 27.04512 -74.21762 35520 ft 525 kts 20°
2026-05-04 02:41 27.07811 -74.19967 35750 ft 523 kts 20°
2026-05-04 02:41 27.11070 -74.18189 35951 ft 521 kts 20°
2026-05-04 02:41 27.14356 -74.16388 36148 ft 520 kts 20°
2026-05-04 02:42 27.17564 -74.14625 36321 ft 519 kts 20°
2026-05-04 02:42 27.20810 -74.12837 36438 ft 518 kts 20°
2026-05-04 02:42 27.24062 -74.11043 36565 ft 518 kts 20°
2026-05-04 02:42 27.27299 -74.09253 36695 ft 517 kts 20°
2026-05-04 02:43 27.30541 -74.07462 36807 ft 517 kts 19°
2026-05-04 02:43 27.33729 -74.05698 36935 ft 516 kts 19°
2026-05-04 02:43 27.36970 -74.03905 37039 ft 516 kts 19°
2026-05-04 02:43 27.40212 -74.02110 37055 ft 518 kts 19°
2026-05-04 02:44 27.46694 -73.98515 37055 ft 521 kts 19°
2026-05-04 02:44 27.53157 -73.94922 37057 ft 517 kts 19°
2026-05-04 02:45 27.59599 -73.91342 37056 ft 517 kts 19°
2026-05-04 02:45 27.66072 -73.87738 37059 ft 518 kts 19°
2026-05-04 02:46 27.72524 -73.84143 37052 ft 519 kts 19°
2026-05-04 02:46 27.79037 -73.80507 37057 ft 519 kts 19°
2026-05-04 02:47 27.85474 -73.76909 37056 ft 519 kts 19°
2026-05-04 02:47 27.91963 -73.73274 37056 ft 519 kts 19°
2026-05-04 02:48 27.97354 -73.70252 37052 ft 520 kts 19°
2026-05-04 02:48 28.03861 -73.66599 37054 ft 520 kts 19°
2026-05-04 02:49 28.10344 -73.62958 37057 ft 520 kts 19°
2026-05-04 02:49 28.16803 -73.59318 37052 ft 520 kts 19°
2026-05-04 02:50 28.23275 -73.55675 37057 ft 521 kts 19°
2026-05-04 02:50 28.29796 -73.52000 37052 ft 521 kts 19°
2026-05-04 02:51 28.36262 -73.48347 37056 ft 521 kts 19°
2026-05-04 02:51 28.42727 -73.44691 37052 ft 521 kts 19°
2026-05-04 02:52 28.49238 -73.40998 37073 ft 521 kts 19°
2026-05-04 02:52 28.55719 -73.37321 37075 ft 522 kts 19°
2026-05-04 02:53 28.62250 -73.33612 37073 ft 523 kts 19°
2026-05-04 02:53 28.68742 -73.29922 37072 ft 523 kts 19°
2026-05-04 02:54 28.75236 -73.26220 37072 ft 523 kts 19°
2026-05-04 02:54 28.81764 -73.22494 37073 ft 524 kts 19°
2026-05-04 02:55 28.91560 -73.16897 37076 ft 525 kts 19°
2026-05-04 02:56 28.98102 -73.13151 37082 ft 526 kts 19°
2026-05-04 02:56 29.04646 -73.09396 37082 ft 525 kts 19°
2026-05-04 02:57 29.11177 -73.05647 37083 ft 527 kts 19°
2026-05-04 02:57 29.17735 -73.01879 37081 ft 528 kts 19°
2026-05-04 02:58 29.24316 -72.98080 37082 ft 528 kts 19°
2026-05-04 02:58 29.30880 -72.94294 37082 ft 528 kts 19°
2026-05-04 02:59 29.37444 -72.90510 37083 ft 528 kts 19°
2026-05-04 02:59 29.43985 -72.86724 37082 ft 529 kts 19°
2026-05-04 03:00 29.50582 -72.82903 37082 ft 529 kts 19°
2026-05-04 03:00 29.57109 -72.79118 37082 ft 529 kts 19°
2026-05-04 03:01 29.63727 -72.75273 37084 ft 530 kts 19°
2026-05-04 03:01 29.70283 -72.71459 37091 ft 529 kts 19°
2026-05-04 03:02 29.76875 -72.67621 37086 ft 529 kts 19°
2026-05-04 03:02 29.83435 -72.63799 37087 ft 529 kts 19°
2026-05-04 03:03 29.90000 -72.59961 37090 ft 529 kts 19°
2026-05-04 03:03 29.96586 -72.56109 37087 ft 530 kts 19°
2026-05-04 03:04 30.03159 -72.52259 37087 ft 531 kts 19°
2026-05-04 03:04 30.09755 -72.48392 37090 ft 532 kts 19°
2026-05-04 03:05 30.16289 -72.44336 37099 ft 540 kts 27°
2026-05-04 03:05 30.22536 -72.39484 37094 ft 542 kts 28°
2026-05-04 03:06 30.28721 -72.34496 37083 ft 544 kts 28°
2026-05-04 03:06 30.34926 -72.29455 37100 ft 543 kts 28°
2026-05-04 03:07 30.41096 -72.24451 37103 ft 542 kts 28°
2026-05-04 03:07 30.47255 -72.19459 37098 ft 543 kts 28°
2026-05-04 03:08 30.53476 -72.14419 37098 ft 543 kts 28°
2026-05-04 03:08 30.59634 -72.09416 37103 ft 544 kts 28°
2026-05-04 03:09 30.65871 -72.04344 37096 ft 545 kts 28°
2026-05-04 03:09 30.72059 -71.99306 37094 ft 546 kts 28°
2026-05-04 03:10 30.78309 -71.94206 37100 ft 546 kts 28°
2026-05-04 03:10 30.84526 -71.89120 37106 ft 548 kts 28°
2026-05-04 03:11 30.90773 -71.84002 37109 ft 550 kts 28°
2026-05-04 03:11 30.97042 -71.78861 37111 ft 552 kts 28°
2026-05-04 03:12 31.03313 -71.73701 37107 ft 553 kts 28°
2026-05-04 03:12 31.09600 -71.68529 37108 ft 554 kts 28°
2026-05-04 03:13 31.15906 -71.63338 37108 ft 556 kts 28°
2026-05-04 03:13 31.22235 -71.58113 37116 ft 557 kts 28°
2026-05-04 03:14 31.28547 -71.52892 37122 ft 558 kts 28°
2026-05-04 03:14 31.34923 -71.47609 37116 ft 559 kts 29°
2026-05-04 03:15 31.41245 -71.42365 37124 ft 560 kts 29°
2026-05-04 03:15 31.47626 -71.37055 37119 ft 561 kts 29°
2026-05-04 03:16 31.53979 -71.31763 37122 ft 561 kts 29°
2026-05-04 03:16 31.60333 -71.26464 37122 ft 561 kts 29°
2026-05-04 03:17 31.66723 -71.21129 37122 ft 561 kts 29°
2026-05-04 03:17 31.73074 -71.15819 37119 ft 561 kts 29°
2026-05-04 03:18 31.79446 -71.10477 37115 ft 561 kts 29°
2026-05-04 03:18 31.85791 -71.05149 37123 ft 561 kts 29°
2026-05-04 03:19 31.92120 -70.99818 37122 ft 560 kts 29°
2026-05-04 03:19 31.98454 -70.94479 37118 ft 561 kts 29°
2026-05-04 03:20 32.04782 -70.89142 37121 ft 561 kts 29°
2026-05-04 03:20 32.11160 -70.83750 37121 ft 565 kts 29°
2026-05-04 03:21 32.17572 -70.78317 37119 ft 565 kts 29°
2026-05-04 03:21 32.23919 -70.72927 37120 ft 564 kts 29°
2026-05-04 03:22 32.30321 -70.67485 37123 ft 564 kts 29°
2026-05-04 03:22 32.36666 -70.62080 37116 ft 564 kts 29°
2026-05-04 03:23 32.43029 -70.56651 37117 ft 565 kts 29°
2026-05-04 03:23 32.49407 -70.51202 37119 ft 563 kts 29°
2026-05-04 03:24 32.55745 -70.45776 37108 ft 563 kts 29°
2026-05-04 03:24 32.62124 -70.40303 37098 ft 563 kts 29°
2026-05-04 03:25 32.68487 -70.34833 37094 ft 564 kts 29°
2026-05-04 03:25 32.74817 -70.29385 37104 ft 564 kts 29°
2026-05-04 03:26 32.81184 -70.23904 37112 ft 565 kts 29°
2026-05-04 03:26 32.87525 -70.18427 37114 ft 566 kts 29°
2026-05-04 03:27 32.93901 -70.12911 37116 ft 566 kts 29°
2026-05-04 03:27 33.00301 -70.07356 37116 ft 567 kts 29°
2026-05-04 03:28 33.06669 -70.01828 37108 ft 568 kts 29°
2026-05-04 03:28 33.13046 -69.96276 37111 ft 568 kts 29°
2026-05-04 03:29 33.18375 -69.91625 37111 ft 568 kts 29°
2026-05-04 03:29 33.24740 -69.86063 37113 ft 568 kts 28°
2026-05-04 03:30 33.31285 -69.80838 37117 ft 556 kts 17°
2026-05-04 03:30 33.38196 -69.76820 37108 ft 553 kts 15°
2026-05-04 03:31 33.45174 -69.72995 37109 ft 554 kts 14°
2026-05-04 03:31 33.52216 -69.69155 37110 ft 555 kts 14°
2026-05-04 03:32 33.59246 -69.65292 37116 ft 555 kts 14°
2026-05-04 03:32 33.66268 -69.61408 37114 ft 556 kts 14°
2026-05-04 03:33 33.73274 -69.57525 37110 ft 556 kts 14°
2026-05-04 03:33 33.80311 -69.53629 37106 ft 556 kts 14°
2026-05-04 03:34 33.87353 -69.49718 37112 ft 556 kts 14°
2026-05-04 03:34 33.94372 -69.45811 37110 ft 556 kts 14°
2026-05-04 03:35 34.01382 -69.41901 37113 ft 557 kts 14°
2026-05-04 03:35 34.08455 -69.37950 37109 ft 557 kts 14°
2026-05-04 03:36 34.15486 -69.34016 37113 ft 557 kts 14°
2026-05-04 03:36 34.22497 -69.30075 37097 ft 557 kts 14°
2026-05-04 03:37 34.29531 -69.26117 37100 ft 557 kts 14°
2026-05-04 03:37 34.36554 -69.22163 37104 ft 557 kts 14°
2026-05-04 03:38 34.43559 -69.18212 37095 ft 556 kts 14°
2026-05-04 03:38 34.50555 -69.14263 37102 ft 556 kts 14°
2026-05-04 03:39 34.57581 -69.10291 37100 ft 556 kts 14°
2026-05-04 03:39 34.64581 -69.06319 37097 ft 556 kts 14°
2026-05-04 03:40 34.71570 -69.02346 37082 ft 556 kts 14°
2026-05-04 03:40 34.78591 -68.98345 37047 ft 557 kts 14°
2026-05-04 03:41 34.85599 -68.94344 37027 ft 557 kts 14°
2026-05-04 03:41 34.92606 -68.90343 37027 ft 557 kts 14°
2026-05-04 03:42 34.99622 -68.86326 37027 ft 557 kts 14°
2026-05-04 03:42 35.06628 -68.82307 37030 ft 556 kts 14°
2026-05-04 03:43 35.13616 -68.78297 37027 ft 556 kts 14°
2026-05-04 03:43 35.20607 -68.74273 37027 ft 556 kts 14°
2026-05-04 03:44 35.27643 -68.70212 37027 ft 556 kts 14°
2026-05-04 03:44 35.34630 -68.66167 37026 ft 556 kts 14°
2026-05-04 03:45 35.41599 -68.62129 37019 ft 555 kts 13°
2026-05-04 03:45 35.48573 -68.58084 37026 ft 556 kts 13°
2026-05-04 03:46 35.55581 -68.54011 37027 ft 556 kts 13°
2026-05-04 03:46 35.62534 -68.49962 37026 ft 555 kts 13°
2026-05-04 03:47 35.69535 -68.45874 37027 ft 555 kts 13°
2026-05-04 03:47 35.76516 -68.41790 37026 ft 555 kts 13°
2026-05-04 03:48 35.83490 -68.37706 37018 ft 556 kts 13°
2026-05-04 03:48 35.90446 -68.33617 37018 ft 554 kts 13°
2026-05-04 03:49 35.97389 -68.29528 37018 ft 554 kts 13°
2026-05-04 03:49 36.04371 -68.25418 37018 ft 554 kts 13°
2026-05-04 03:50 36.11328 -68.21311 37010 ft 554 kts 13°
2026-05-04 03:50 36.18292 -68.17193 37008 ft 554 kts 13°
2026-05-04 03:51 36.25226 -68.13083 37009 ft 554 kts 13°
2026-05-04 03:51 36.32180 -68.08951 37009 ft 554 kts 13°
2026-05-04 03:52 36.39122 -68.04817 37000 ft 555 kts 13°
2026-05-04 03:52 36.46089 -68.00663 36999 ft 555 kts 14°
2026-05-04 03:53 36.53050 -67.96501 37000 ft 556 kts 14°
2026-05-04 03:53 36.60010 -67.92331 37001 ft 555 kts 14°
2026-05-04 03:54 36.66935 -67.88179 36989 ft 553 kts 14°
2026-05-04 03:54 36.73853 -67.84014 36990 ft 552 kts 14°
2026-05-04 03:55 36.80792 -67.79835 36988 ft 552 kts 14°
2026-05-04 03:55 36.87688 -67.75672 36990 ft 551 kts 14°
2026-05-04 03:56 36.94605 -67.71490 36985 ft 551 kts 14°
2026-05-04 03:56 37.01486 -67.67319 36982 ft 550 kts 15°
2026-05-04 03:57 37.08355 -67.63147 36985 ft 549 kts 15°
2026-05-04 03:57 37.15249 -67.58953 36978 ft 549 kts 15°
2026-05-04 03:58 37.25504 -67.52697 36971 ft 548 kts 15°
2026-05-04 03:58 37.32372 -67.48494 36971 ft 548 kts 15°
2026-05-04 03:59 37.39198 -67.44310 36971 ft 547 kts 15°
2026-05-04 03:59 37.46036 -67.40110 36969 ft 547 kts 15°
2026-05-04 04:00 37.52870 -67.35902 36961 ft 546 kts 15°
2026-05-04 04:00 37.59724 -67.31679 36962 ft 545 kts 15°
2026-05-04 04:01 37.66495 -67.27494 36962 ft 545 kts 15°
2026-05-04 04:01 37.73338 -67.23256 36956 ft 545 kts 15°
2026-05-04 04:02 37.80132 -67.19038 36954 ft 546 kts 15°
2026-05-04 04:02 37.86964 -67.14793 36953 ft 548 kts 16°
2026-05-04 04:03 37.93800 -67.10532 36953 ft 548 kts 16°
2026-05-04 04:03 38.00633 -67.06267 36943 ft 547 kts 16°
2026-05-04 04:04 38.07409 -67.02024 36943 ft 545 kts 17°
2026-05-04 04:04 38.14226 -66.97745 36943 ft 543 kts 17°
2026-05-04 04:05 38.20970 -66.93509 36934 ft 543 kts 17°
2026-05-04 04:05 38.27779 -66.89226 36934 ft 543 kts 17°
2026-05-04 04:06 38.34544 -66.84959 36934 ft 543 kts 17°
2026-05-04 04:06 38.41286 -66.80698 36934 ft 543 kts 17°
2026-05-04 04:07 38.48080 -66.76393 36919 ft 544 kts 17°
2026-05-04 04:07 38.54857 -66.72088 36928 ft 544 kts 17°
2026-05-04 04:08 38.61569 -66.67624 36932 ft 552 kts 25°
2026-05-04 04:08 38.64660 -66.64607 36932 ft 562 kts 38°
2026-05-04 04:08 38.67472 -66.61176 36929 ft 564 kts 39°
2026-05-04 04:09 38.72973 -66.53915 36922 ft 566 kts 41°
2026-05-04 04:09 38.78335 -66.46614 36929 ft 567 kts 41°
2026-05-04 04:10 38.83754 -66.39259 36930 ft 566 kts 41°
2026-05-04 04:10 38.89191 -66.31915 36916 ft 565 kts 41°
2026-05-04 04:11 38.94598 -66.24612 36927 ft 564 kts 41°
2026-05-04 04:11 38.99985 -66.17319 36913 ft 563 kts 42°
2026-05-04 04:12 39.04478 -66.11220 36927 ft 562 kts 42°
2026-05-04 04:12 39.09838 -66.03928 36905 ft 561 kts 42°
2026-05-04 04:13 39.15178 -65.96647 36906 ft 559 kts 42°
2026-05-04 04:13 39.20515 -65.89349 36903 ft 560 kts 43°
2026-05-04 04:14 39.25860 -65.82025 36839 ft 560 kts 43°
2026-05-04 04:14 39.31219 -65.74664 36776 ft 559 kts 43°
2026-05-04 04:15 39.36523 -65.67361 36765 ft 558 kts 43°
2026-05-04 04:15 39.41813 -65.60056 36765 ft 558 kts 43°
2026-05-04 04:16 39.47140 -65.52691 36758 ft 557 kts 43°
2026-05-04 04:16 39.52418 -65.45375 36759 ft 557 kts 43°
2026-05-04 04:17 39.57699 -65.38039 36749 ft 557 kts 43°
2026-05-04 04:17 39.62998 -65.30659 36749 ft 558 kts 43°
2026-05-04 04:18 39.68272 -65.23293 36749 ft 559 kts 43°
2026-05-04 04:18 39.73542 -65.15915 36740 ft 558 kts 43°
2026-05-04 04:19 39.78850 -65.08463 36739 ft 559 kts 43°
2026-05-04 04:19 39.84133 -65.01031 36740 ft 560 kts 44°
2026-05-04 04:20 39.89422 -64.93569 36730 ft 561 kts 44°
2026-05-04 04:20 39.94715 -64.86085 36716 ft 562 kts 44°
2026-05-04 04:21 39.99986 -64.78620 36663 ft 562 kts 44°
2026-05-04 04:21 40.05251 -64.71141 36656 ft 559 kts 45°
2026-05-04 04:22 40.10508 -64.63646 36640 ft 557 kts 45°
2026-05-04 04:22 40.15733 -64.56185 36608 ft 557 kts 45°
2026-05-04 04:23 40.20951 -64.48723 36601 ft 558 kts 45°
2026-05-04 04:23 40.26208 -64.41180 36600 ft 559 kts 45°
2026-05-04 04:24 40.31429 -64.33673 36599 ft 559 kts 45°
2026-05-04 04:24 40.36664 -64.26130 36595 ft 560 kts 45°
2026-05-04 04:25 40.41923 -64.18529 36590 ft 560 kts 45°
2026-05-04 04:25 40.47137 -64.10968 36589 ft 560 kts 45°
2026-05-04 04:26 40.52350 -64.03393 36590 ft 560 kts 45°
2026-05-04 04:26 40.57565 -63.95804 36581 ft 559 kts 46°
2026-05-04 04:27 40.62805 -63.88153 36582 ft 561 kts 46°
2026-05-04 04:27 40.68008 -63.80535 36580 ft 560 kts 46°
2026-05-04 04:28 40.73200 -63.72916 36572 ft 559 kts 46°
2026-05-04 04:28 40.78414 -63.65246 36572 ft 559 kts 46°
2026-05-04 04:29 40.83599 -63.57599 36572 ft 558 kts 46°
2026-05-04 04:29 40.88747 -63.49984 36565 ft 558 kts 46°
2026-05-04 04:30 40.93905 -63.42337 36587 ft 557 kts 47°
2026-05-04 04:30 40.99058 -63.34689 36529 ft 557 kts 47°
2026-05-04 04:31 41.04199 -63.27028 36415 ft 557 kts 47°
2026-05-04 04:31 41.09327 -63.19365 36397 ft 558 kts 47°
2026-05-04 04:32 41.14504 -63.11612 36410 ft 560 kts 47°
2026-05-04 04:32 41.19664 -63.03865 36396 ft 563 kts 47°
2026-05-04 04:33 41.24877 -62.96019 36397 ft 565 kts 47°
2026-05-04 04:33 41.30059 -62.88188 36390 ft 566 kts 47°
2026-05-04 04:34 41.35265 -62.80311 36395 ft 566 kts 48°
2026-05-04 04:34 41.40451 -62.72446 36391 ft 565 kts 48°
2026-05-04 04:35 41.45622 -62.64581 36385 ft 565 kts 48°
2026-05-04 04:35 41.50801 -62.56683 36413 ft 565 kts 48°
2026-05-04 04:36 41.55955 -62.48802 36426 ft 565 kts 49°
2026-05-04 04:36 41.61112 -62.40892 36424 ft 565 kts 49°
2026-05-04 04:37 41.71411 -62.25035 36414 ft 564 kts 49°
2026-05-04 04:38 41.76529 -62.17127 36415 ft 563 kts 49°
2026-05-04 04:38 41.81652 -62.09185 36413 ft 563 kts 49°
2026-05-04 04:39 41.86793 -62.01197 36397 ft 563 kts 49°
2026-05-04 04:39 41.91901 -61.93243 36415 ft 562 kts 49°
2026-05-04 04:40 41.97000 -61.85286 36395 ft 562 kts 50°
2026-05-04 04:40 42.02074 -61.77335 36411 ft 562 kts 50°
2026-05-04 04:41 42.07186 -61.69302 36393 ft 562 kts 50°
2026-05-04 04:41 42.12261 -61.61307 36390 ft 561 kts 50°
2026-05-04 04:42 42.17316 -61.53325 36396 ft 562 kts 50°
2026-05-04 04:42 42.22385 -61.45298 36393 ft 562 kts 50°
2026-05-04 04:43 42.27478 -61.37215 36390 ft 562 kts 50°
2026-05-04 04:43 42.32508 -61.29207 36383 ft 562 kts 51°
2026-05-04 04:44 42.37550 -61.21157 36324 ft 562 kts 51°
2026-05-04 04:44 42.42377 -61.12810 36314 ft 560 kts 57°
2026-05-04 04:45 42.46752 -61.04134 36310 ft 560 kts 58°
2026-05-04 04:47 42.62352 -60.73737 36315 ft 561 kts 57°
2026-05-04 04:47 42.66821 -60.65092 36326 ft 562 kts 57°
2026-05-04 04:48 42.71304 -60.56388 36310 ft 562 kts 58°
2026-05-04 04:49 42.82461 -60.34607 36328 ft 562 kts 58°
2026-05-04 04:49 42.86908 -60.25887 36328 ft 561 kts 58°
2026-05-04 04:50 42.91357 -60.17126 36332 ft 561 kts 58°
2026-05-04 04:50 42.95804 -60.08343 36323 ft 560 kts 58°
2026-05-04 04:51 43.00404 -59.99796 36332 ft 563 kts 48°
2026-05-04 04:51 43.05904 -59.92170 36371 ft 565 kts 46°
2026-05-04 04:52 43.11573 -59.84705 36375 ft 567 kts 45°
2026-05-04 04:52 43.17259 -59.77255 36374 ft 566 kts 46°
2026-05-04 04:53 43.22954 -59.69737 36375 ft 565 kts 46°
2026-05-04 04:53 43.28594 -59.62241 36374 ft 565 kts 46°
2026-05-04 04:54 43.34217 -59.54749 36374 ft 564 kts 46°
2026-05-04 04:54 43.39842 -59.47232 36374 ft 564 kts 46°
2026-05-04 04:55 43.45482 -59.39677 36375 ft 564 kts 46°
2026-05-04 04:55 43.51068 -59.32175 36374 ft 564 kts 46°
2026-05-04 04:56 43.56663 -59.24637 36375 ft 564 kts 47°
2026-05-04 04:56 43.61342 -59.18320 36374 ft 564 kts 47°
2026-05-04 04:57 43.66943 -59.10734 36374 ft 565 kts 47°
2026-05-04 04:57 43.72567 -59.03094 36373 ft 565 kts 47°
2026-05-04 04:58 43.78161 -58.95481 36373 ft 566 kts 47°
2026-05-04 04:58 43.83794 -58.87794 36372 ft 566 kts 47°
2026-05-04 04:59 43.89090 -58.79782 36374 ft 564 kts 53°
2026-05-04 04:59 43.94120 -58.71432 36373 ft 564 kts 54°
2026-05-04 05:00 43.99094 -58.63037 36330 ft 564 kts 55°
2026-05-04 05:01 44.06558 -58.50401 36304 ft 561 kts 55°
2026-05-04 05:01 44.11498 -58.42032 36298 ft 561 kts 55°
2026-05-04 05:02 44.16435 -58.33637 36303 ft 562 kts 55°
2026-05-04 05:02 44.21412 -58.25153 36298 ft 563 kts 56°
2026-05-04 05:03 44.26352 -58.16705 36292 ft 564 kts 56°
2026-05-04 05:04 44.36236 -57.99729 36290 ft 564 kts 56°
2026-05-04 05:04 44.41208 -57.91161 36281 ft 564 kts 56°
2026-05-04 05:06 44.60860 -57.57002 36280 ft 562 kts 56°
2026-05-04 05:07 44.65731 -57.48475 36279 ft 561 kts 56°
2026-05-04 05:07 44.70635 -57.39863 36278 ft 561 kts 56°
2026-05-04 05:09 44.92485 -57.01171 36290 ft 561 kts 57°
2026-05-04 05:10 44.97324 -56.92529 36299 ft 561 kts 57°
2026-05-04 05:10 45.02150 -56.83887 36312 ft 561 kts 57°
2026-05-04 05:11 45.06963 -56.75235 36309 ft 561 kts 57°
2026-05-04 05:11 45.11784 -56.66559 36319 ft 561 kts 57°
2026-05-04 05:12 45.16623 -56.57814 36325 ft 562 kts 57°
2026-05-04 05:12 45.21425 -56.49104 36321 ft 562 kts 57°
2026-05-04 05:13 45.26255 -56.40320 36331 ft 562 kts 57°
2026-05-04 05:13 45.31034 -56.31604 36342 ft 562 kts 58°
2026-05-04 05:14 45.35852 -56.22783 36346 ft 563 kts 57°
2026-05-04 05:14 45.40629 -56.14016 36357 ft 563 kts 58°
2026-05-04 05:15 45.45431 -56.05173 36442 ft 564 kts 58°
2026-05-04 05:15 45.50210 -55.96358 36449 ft 563 kts 57°
2026-05-04 05:16 45.54974 -55.87524 36449 ft 564 kts 57°
2026-05-04 05:16 45.59772 -55.78601 36449 ft 565 kts 57°
2026-05-04 05:17 45.64548 -55.69689 36448 ft 565 kts 58°
2026-05-04 05:17 45.69321 -55.60772 36449 ft 565 kts 58°
2026-05-04 05:18 45.74065 -55.51878 36449 ft 564 kts 58°
2026-05-04 05:18 45.78815 -55.42938 36450 ft 565 kts 57°
2026-05-04 05:19 45.83546 -55.34002 36468 ft 565 kts 58°
2026-05-04 05:19 45.88265 -55.25050 36475 ft 559 kts 57°
2026-05-04 05:20 45.93008 -55.16070 36482 ft 567 kts 57°
2026-05-04 05:20 45.97731 -55.07046 36476 ft 568 kts 58°
2026-05-04 05:21 46.02499 -54.97932 36480 ft 567 kts 57°
2026-05-04 05:21 46.07222 -54.88864 36488 ft 563 kts 57°
2026-05-04 05:22 46.11931 -54.79803 36488 ft 565 kts 57°
2026-05-04 05:22 46.16611 -54.70726 36488 ft 563 kts 56°
2026-05-04 05:23 46.21277 -54.61721 36499 ft 564 kts 57°
2026-05-04 05:23 46.25985 -54.52592 36502 ft 564 kts 56°
2026-05-04 05:24 46.30663 -54.43444 36503 ft 566 kts 57°
2026-05-04 05:24 46.35345 -54.34293 36489 ft 568 kts 56°
2026-05-04 05:25 46.40042 -54.25102 36500 ft 565 kts 56°
2026-05-04 05:25 46.44677 -54.15929 36504 ft 569 kts 57°
2026-05-04 05:26 46.49366 -54.06740 36511 ft 568 kts 57°
2026-05-04 05:26 46.54010 -53.97488 36524 ft 566 kts 57°
2026-05-04 05:28 46.72292 -53.60919 36608 ft 551 kts 56°
2026-05-04 05:29 46.76778 -53.51895 36613 ft 551 kts 56°
2026-05-04 05:29 46.81252 -53.42889 36618 ft 547 kts 56°
2026-05-04 05:31 46.99001 -53.06656 36627 ft 548 kts 56°
2026-05-04 05:32 47.03427 -52.97568 36633 ft 547 kts 56°
2026-05-04 05:33 47.10012 -52.84012 36637 ft 543 kts 56°
2026-05-04 05:33 47.14394 -52.74928 36646 ft 542 kts 56°
2026-05-04 05:34 47.18745 -52.65890 36645 ft 542 kts 55°
2026-05-04 05:34 47.23095 -52.56832 36647 ft 542 kts 55°
2026-05-04 05:35 47.27424 -52.47768 36656 ft 541 kts 55°
2026-05-04 05:35 47.31732 -52.38716 36654 ft 540 kts 55°
2026-05-04 05:36 47.36029 -52.29662 36657 ft 540 kts 55°
2026-05-04 05:36 47.40322 -52.20587 36656 ft 539 kts 55°
2026-05-04 05:37 47.44636 -52.11451 36656 ft 539 kts 55°
2026-05-04 05:37 47.48864 -52.02350 36650 ft 538 kts 60°
2026-05-04 05:38 47.53390 -51.87261 36646 ft 535 kts 71°
2026-05-04 05:38 47.56035 -51.76989 36646 ft 535 kts 71°
2026-05-04 05:39 47.59981 -51.61537 36642 ft 535 kts 71°
2026-05-04 05:40 47.63932 -51.46062 36637 ft 535 kts 71°
2026-05-04 05:40 47.66568 -51.35709 36637 ft 536 kts 71°
2026-05-04 05:41 47.69186 -51.25379 36637 ft 535 kts 71°
2026-05-04 05:41 47.71353 -51.16790 36637 ft 536 kts 71°
2026-05-04 05:42 47.73975 -51.06365 36637 ft 536 kts 71°
2026-05-04 05:42 47.76576 -50.95965 36637 ft 537 kts 71°
2026-05-04 05:43 47.79155 -50.85601 36637 ft 537 kts 70°
2026-05-04 05:45 47.89453 -50.43753 36636 ft 539 kts 70°
2026-05-04 05:47 47.99616 -50.01658 36637 ft 540 kts 70°
2026-05-04 05:47 48.02189 -49.91136 36637 ft 540 kts 69°
2026-05-04 05:48 48.04844 -49.80680 36636 ft 540 kts 69°
2026-05-04 05:48 48.07501 -49.70146 36636 ft 539 kts 69°
2026-05-04 05:49 48.10116 -49.59668 36644 ft 538 kts 69°
2026-05-04 05:49 48.12716 -49.49178 36646 ft 538 kts 69°
2026-05-04 05:51 48.22990 -49.07189 36646 ft 535 kts 69°
2026-05-04 05:52 48.25525 -48.96709 36646 ft 535 kts 69°
2026-05-04 05:52 48.28048 -48.86226 36646 ft 534 kts 69°
2026-05-04 05:54 48.38029 -48.44274 36652 ft 533 kts 68°
2026-05-04 05:55 48.40513 -48.33709 36656 ft 533 kts 68°
2026-05-04 05:55 48.42920 -48.23395 36783 ft 507 kts 68°
2026-05-04 05:56 48.44062 -48.18472 36983 ft 489 kts 68°
2026-05-04 05:56 48.45163 -48.13722 36810 ft 482 kts 67°
2026-05-04 05:56 48.46300 -48.08912 36154 ft 487 kts 67°
2026-05-04 05:56 48.47465 -48.04071 35300 ft 496 kts 67°
2026-05-04 05:57 48.48620 -47.99177 34675 ft 500 kts 68°
2026-05-04 05:57 48.49768 -47.94253 34500 ft 491 kts 67°
2026-05-04 05:57 48.50874 -47.89459 34633 ft 475 kts 68°
2026-05-04 05:57 48.51896 -47.84833 34658 ft 463 kts 69°
2026-05-04 05:58 48.52839 -47.80182 34283 ft 461 kts 71°
2026-05-04 05:58 48.53707 -47.75521 33542 ft 470 kts 72°
2026-05-04 05:58 48.54573 -47.70687 32749 ft 479 kts 72°
2026-05-04 05:58 48.55418 -47.65799 32333 ft 476 kts 73°
2026-05-04 05:59 48.56230 -47.61014 32398 ft 461 kts 72°
2026-05-04 05:59 48.57023 -47.56457 32554 ft 445 kts 72°
2026-05-04 05:59 48.57764 -47.51942 32398 ft 437 kts 73°
2026-05-04 05:59 48.58479 -47.47512 31835 ft 441 kts 72°
2026-05-04 06:00 48.59270 -47.42970 31087 ft 449 kts 71°
2026-05-04 06:00 48.60174 -47.38435 30570 ft 449 kts 68°
2026-05-04 06:00 48.61143 -47.34030 30478 ft 438 kts 68°
2026-05-04 06:00 48.62073 -47.29706 30603 ft 423 kts 69°
2026-05-04 06:01 48.63741 -47.21393 30074 ft 415 kts 70°
2026-05-04 06:03 48.68092 -46.91748 27561 ft 402 kts 72°
2026-05-04 06:03 48.68837 -46.87628 26976 ft 407 kts 71°
2026-05-04 06:05 48.74751 -46.60834 24951 ft 375 kts 62°
2026-05-04 06:05 48.77060 -46.54012 24744 ft 354 kts 57°
2026-05-04 06:05 48.78292 -46.50851 24410 ft 351 kts 54°
2026-05-04 06:06 48.79607 -46.47704 23905 ft 355 kts 54°
2026-05-04 06:06 48.80980 -46.44564 23454 ft 356 kts 52°
2026-05-04 06:06 48.82397 -46.41550 23142 ft 352 kts 50°
2026-05-04 06:06 48.83851 -46.38560 22893 ft 347 kts 50°
2026-05-04 06:07 48.85272 -46.35664 22639 ft 342 kts 50°
2026-05-04 06:07 48.86742 -46.32784 22272 ft 341 kts 48°
2026-05-04 06:07 48.88238 -46.30018 21832 ft 343 kts 46°
2026-05-04 06:07 48.89813 -46.27237 21389 ft 345 kts 45°
2026-05-04 06:08 48.91399 -46.24546 21033 ft 344 kts 45°
2026-05-04 06:08 48.93003 -46.21852 20764 ft 340 kts 45°
2026-05-04 06:08 48.94573 -46.19174 20496 ft 336 kts 45°
2026-05-04 06:08 48.96089 -46.16523 20147 ft 336 kts 46°
2026-05-04 06:09 48.97619 -46.13824 19728 ft 337 kts 46°
2026-05-04 06:09 48.99191 -46.11146 19317 ft 339 kts 44°
2026-05-04 06:11 49.11903 -45.95998 17019 ft 327 kts 30°
2026-05-04 06:11 49.13816 -45.94171 16870 ft 320 kts 29°
2026-05-04 06:13 49.27082 -45.82562 14855 ft 306 kts 26°
2026-05-04 06:14 49.38023 -45.72525 13116 ft 299 kts 33°
2026-05-04 06:14 49.39769 -45.70834 12757 ft 300 kts 31°
2026-05-04 06:15 49.41610 -45.69277 12421 ft 301 kts 26°
2026-05-04 06:15 49.43534 -45.67971 12099 ft 301 kts 21°
2026-05-04 06:15 49.45473 -45.66886 11921 ft 297 kts 20°
2026-05-04 06:15 49.47367 -45.65691 11756 ft 290 kts 26°
2026-05-04 06:16 49.49125 -45.64166 11350 ft 292 kts 34°
2026-05-04 06:16 49.50809 -45.62358 10778 ft 302 kts 39°
2026-05-04 06:16 49.52489 -45.60327 10361 ft 305 kts 43°
2026-05-04 06:16 49.54082 -45.58213 10191 ft 298 kts 44°
2026-05-04 06:17 49.55564 -45.56117 10130 ft 287 kts 47°
2026-05-04 06:17 49.56960 -45.53958 9967 ft 281 kts 50°
2026-05-04 06:17 49.58321 -45.51776 9552 ft 285 kts 50°
2026-05-04 06:17 49.59638 -45.49484 9070 ft 291 kts 56°
2026-05-04 06:18 49.60825 -45.46949 8712 ft 286 kts 63°
2026-05-04 06:18 49.61813 -45.44314 8482 ft 285 kts 66°
2026-05-04 06:18 49.62878 -45.41768 8381 ft 279 kts 57°
2026-05-04 06:20 49.68231 -45.23770 6356 ft 244 kts 89°
2026-05-04 06:20 49.68506 -45.21117 5751 ft 257 kts 86°
2026-05-04 06:21 49.70286 -45.10403 4946 ft 242 kts 85°
2026-05-04 06:21 49.70610 -45.07829 4572 ft 246 kts 88°
2026-05-04 06:22 49.70861 -45.05211 4134 ft 251 kts 90°
2026-05-04 06:22 49.71066 -45.02519 3812 ft 250 kts 92°
2026-05-04 06:25 49.71743 -44.71722 520 ft 229 kts 143°
2026-05-04 06:25 49.69949 -44.70259 530 ft 211 kts 162°
2026-05-04 06:26 49.68524 -44.69774 314 ft 210 kts 171°
2026-05-04 06:26 49.67411 -44.69648 667 ft 406 kts 177°
2026-05-04 06:26 49.65348 -44.69623 4612 ft 192 kts 177°
2026-05-04 06:26 49.64255 -44.69636 6572 ft 137 kts 171°
2026-05-04 06:27 49.58561 -44.69550 5021 ft 231 kts 184°
2026-05-04 06:28 49.56967 -44.69566 5003 ft 232 kts 184°
2026-05-04 06:28 49.55346 -44.69582 4982 ft 232 kts 185°
2026-05-04 06:28 49.53732 -44.69613 4965 ft 231 kts 184°
2026-05-04 06:28 49.52097 -44.69640 4947 ft 235 kts 184°
2026-05-04 06:29 49.50470 -44.69671 4937 ft 235 kts 184°
2026-05-04 06:29 49.48828 -44.69697 4935 ft 234 kts 185°
2026-05-04 06:29 49.47210 -44.69735 4923 ft 234 kts 184°
2026-05-04 06:29 49.45573 -44.69771 4898 ft 232 kts 184°
2026-05-04 06:30 49.43979 -44.69809 4896 ft 230 kts 184°
2026-05-04 06:30 49.42368 -44.69831 4877 ft 229 kts 184°
2026-05-04 06:30 49.40787 -44.69854 4872 ft 231 kts 185°
2026-05-04 06:30 49.39189 -44.69887 4865 ft 227 kts 185°
2026-05-04 06:31 49.37610 -44.69918 4859 ft 227 kts 184°
2026-05-04 06:31 49.36026 -44.69939 4852 ft 226 kts 183°
2026-05-04 06:31 49.34463 -44.69955 4842 ft 226 kts 183°
2026-05-04 06:31 49.32886 -44.69965 4835 ft 225 kts 184°
2026-05-04 06:32 49.31335 -44.70002 4832 ft 224 kts 185°
2026-05-04 06:33 49.20269 -44.70208 4769 ft 227 kts 184°
2026-05-04 06:34 49.18671 -44.70242 4760 ft 230 kts 185°
2026-05-04 06:34 49.17078 -44.70272 4743 ft 229 kts 184°
2026-05-04 06:34 49.15501 -44.70290 4738 ft 228 kts 184°
2026-05-04 06:34 49.13904 -44.70308 4731 ft 226 kts 185°
2026-05-04 06:35 49.12341 -44.70344 4726 ft 229 kts 185°
2026-05-04 06:36 49.01135 -44.70499 4686 ft 227 kts 185°
2026-05-04 06:37 48.99551 -44.70530 4679 ft 228 kts 184°
2026-05-04 06:37 48.97988 -44.70553 4675 ft 226 kts 185°
2026-05-04 06:37 48.96404 -44.70578 4658 ft 226 kts 185°
2026-05-04 06:37 48.94829 -44.70610 4632 ft 225 kts 184°
2026-05-04 06:38 48.93258 -44.70636 4624 ft 228 kts 184°
2026-05-04 06:38 48.91653 -44.70660 4633 ft 230 kts 183°
2026-05-04 06:40 48.80385 -44.70920 4580 ft 233 kts 184°
2026-05-04 06:40 48.78770 -44.70942 4569 ft 231 kts 184°
2026-05-04 06:40 48.77177 -44.70965 4557 ft 227 kts 184°
2026-05-04 06:40 48.75629 -44.70978 4543 ft 224 kts 184°
2026-05-04 06:41 48.74060 -44.71011 4545 ft 225 kts 186°
2026-05-04 06:41 48.72511 -44.71039 4531 ft 225 kts 184°
2026-05-04 06:41 48.70909 -44.71068 4527 ft 229 kts 184°
2026-05-04 06:41 48.69335 -44.71104 4521 ft 229 kts 185°
2026-05-04 06:42 48.67743 -44.71134 4512 ft 229 kts 185°
2026-05-04 06:42 48.66141 -44.71163 4506 ft 228 kts 184°
2026-05-04 06:42 48.64558 -44.71171 4497 ft 231 kts 185°
2026-05-04 06:44 48.53239 -44.71322 4441 ft 235 kts 184°
2026-05-04 06:44 48.51591 -44.71361 4438 ft 236 kts 184°
2026-05-04 06:44 48.49962 -44.71389 4427 ft 235 kts 184°
2026-05-04 06:45 48.48322 -44.71411 4418 ft 235 kts 184°
2026-05-04 06:45 48.46700 -44.71439 4415 ft 235 kts 185°
2026-05-04 06:45 48.45059 -44.71471 4405 ft 236 kts 185°
2026-05-04 06:45 48.43409 -44.71504 4393 ft 236 kts 185°
2026-05-04 06:46 48.41769 -44.71539 4382 ft 235 kts 184°
2026-05-04 06:46 48.40138 -44.71567 4367 ft 234 kts 184°
2026-05-04 06:46 48.38514 -44.71599 4360 ft 234 kts 184°
2026-05-04 06:46 48.36891 -44.71634 4347 ft 235 kts 184°
2026-05-04 06:48 48.25463 -44.71867 4309 ft 234 kts 184°
2026-05-04 06:48 48.23850 -44.71905 4302 ft 234 kts 184°
2026-05-04 06:49 48.22226 -44.71939 4292 ft 234 kts 184°
2026-05-04 06:50 48.10859 -44.72176 4234 ft 233 kts 185°
2026-05-04 06:51 48.09232 -44.72213 4225 ft 233 kts 184°
2026-05-04 06:51 48.07625 -44.72249 4211 ft 233 kts 184°
2026-05-04 06:51 48.06005 -44.72286 4203 ft 232 kts 184°
2026-05-04 06:51 48.04394 -44.72322 4199 ft 233 kts 184°
2026-05-04 06:52 48.02774 -44.72361 4184 ft 232 kts 184°
2026-05-04 06:52 48.01147 -44.72398 4172 ft 232 kts 184°
2026-05-04 06:52 47.99557 -44.72435 4168 ft 231 kts 185°
2026-05-04 06:52 47.97943 -44.72469 4162 ft 232 kts 185°
2026-05-04 06:53 47.96324 -44.72509 4157 ft 232 kts 184°
2026-05-04 06:53 47.94711 -44.72545 4149 ft 231 kts 184°
2026-05-04 06:53 47.93115 -44.72586 4141 ft 232 kts 185°
2026-05-04 06:53 47.91496 -44.72622 4137 ft 232 kts 184°
2026-05-04 06:54 47.90426 -44.72647 4131 ft 232 kts 185°
2026-05-04 06:54 47.88808 -44.72677 4115 ft 232 kts 185°
2026-05-04 06:54 47.86670 -44.72726 4108 ft 231 kts 184°
2026-05-04 06:54 47.85064 -44.72760 4103 ft 231 kts 184°
2026-05-04 06:55 47.83995 -44.72783 4096 ft 231 kts 184°
2026-05-04 06:55 47.82380 -44.72814 4090 ft 232 kts 184°
2026-05-04 06:55 47.80762 -44.72847 4090 ft 233 kts 184°
2026-05-04 06:55 47.79151 -44.72880 4076 ft 233 kts 184°
2026-05-04 06:56 47.77511 -44.72914 4068 ft 234 kts 184°
2026-05-04 06:57 47.66038 -44.73171 3991 ft 237 kts 184°
2026-05-04 06:58 47.64378 -44.73210 3990 ft 237 kts 184°
2026-05-04 06:58 47.62745 -44.73250 3982 ft 237 kts 184°
2026-05-04 06:58 47.61086 -44.73287 3981 ft 237 kts 184°
2026-05-04 06:58 47.59458 -44.73325 3967 ft 236 kts 184°
2026-05-04 06:59 47.57805 -44.73364 3959 ft 236 kts 184°
2026-05-04 06:59 47.56172 -44.73402 3950 ft 237 kts 185°
2026-05-04 06:59 47.54514 -44.73440 3937 ft 235 kts 185°
2026-05-04 06:59 47.52889 -44.73479 3929 ft 235 kts 184°
2026-05-04 07:01 47.41429 -44.73754 3868 ft 234 kts 185°
2026-05-04 07:01 47.39815 -44.73796 3866 ft 234 kts 184°
2026-05-04 07:02 47.38178 -44.73832 3846 ft 235 kts 184°
2026-05-04 07:02 47.36543 -44.73870 3836 ft 234 kts 185°
2026-05-04 07:02 47.34907 -44.73909 3833 ft 235 kts 184°
2026-05-04 07:02 47.33294 -44.73946 3822 ft 234 kts 184°
2026-05-04 07:03 47.31655 -44.73982 3812 ft 235 kts 185°
2026-05-04 07:03 47.30032 -44.74024 3804 ft 235 kts 184°
2026-05-04 07:03 47.28386 -44.74062 3796 ft 235 kts 184°
2026-05-04 07:03 47.26741 -44.74100 3786 ft 236 kts 185°
2026-05-04 07:04 47.25116 -44.74142 3785 ft 236 kts 185°
2026-05-04 07:04 47.23467 -44.74180 3782 ft 237 kts 185°
2026-05-04 07:04 47.21808 -44.74221 3773 ft 236 kts 185°
2026-05-04 07:04 47.20178 -44.74262 3752 ft 236 kts 185°
2026-05-04 07:05 47.18525 -44.74301 3742 ft 236 kts 184°
2026-05-04 07:05 47.16882 -44.74338 3734 ft 235 kts 184°
2026-05-04 07:05 47.15269 -44.74374 3724 ft 233 kts 185°
2026-05-04 07:05 47.13642 -44.74415 3714 ft 233 kts 185°
2026-05-04 07:06 47.10394 -44.74492 3695 ft 234 kts 184°
2026-05-04 07:06 47.08761 -44.74547 3681 ft 230 kts 185°
2026-05-04 07:06 47.07172 -44.74594 3665 ft 228 kts 185°
2026-05-04 07:07 47.05578 -44.74622 3656 ft 228 kts 184°
2026-05-04 07:08 46.94455 -44.74906 3607 ft 230 kts 184°
2026-05-04 07:09 46.92868 -44.74943 3603 ft 230 kts 185°
2026-05-04 07:09 46.91254 -44.74989 3584 ft 230 kts 185°
2026-05-04 07:09 46.89661 -44.75027 3578 ft 231 kts 185°
2026-05-04 07:09 46.88044 -44.75058 3571 ft 231 kts 185°
2026-05-04 07:10 46.86470 -44.75087 3560 ft 230 kts 185°
2026-05-04 07:10 46.84867 -44.75130 3560 ft 230 kts 184°
2026-05-04 07:12 46.73398 -44.75405 3506 ft 238 kts 185°
2026-05-04 07:12 46.71737 -44.75458 3493 ft 236 kts 184°
2026-05-04 07:12 46.70079 -44.75496 3490 ft 239 kts 184°
2026-05-04 07:12 46.68415 -44.75547 3481 ft 240 kts 184°
2026-05-04 07:13 46.66762 -44.75589 3477 ft 238 kts 185°
2026-05-04 07:13 46.65111 -44.75624 3472 ft 237 kts 185°
2026-05-04 07:13 46.63463 -44.75653 3462 ft 234 kts 185°
2026-05-04 07:14 46.56936 -44.75777 3417 ft 233 kts 185°
2026-05-04 07:14 46.55335 -44.75810 3405 ft 233 kts 185°
2026-05-04 07:15 46.53709 -44.75845 3399 ft 233 kts 185°
2026-05-04 07:15 46.52073 -44.75879 3399 ft 234 kts 184°
2026-05-04 07:15 46.50454 -44.75909 3388 ft 235 kts 185°
2026-05-04 07:15 46.48828 -44.75940 3378 ft 235 kts 184°
2026-05-04 07:16 46.47180 -44.75965 3372 ft 235 kts 184°
2026-05-04 07:16 46.45555 -44.75992 3369 ft 236 kts 184°
2026-05-04 07:16 46.43909 -44.76020 3360 ft 236 kts 184°
2026-05-04 07:16 46.42252 -44.76050 3349 ft 236 kts 185°
2026-05-04 07:17 46.40635 -44.76077 3346 ft 234 kts 184°
2026-05-04 07:17 46.38998 -44.76107 3328 ft 235 kts 184°
2026-05-04 07:17 46.37345 -44.76139 3314 ft 235 kts 184°
2026-05-04 07:17 46.35716 -44.76171 3305 ft 236 kts 185°
2026-05-04 07:18 46.34063 -44.76200 3295 ft 236 kts 185°
2026-05-04 07:18 46.32438 -44.76234 3282 ft 236 kts 184°
2026-05-04 07:18 46.30794 -44.76264 3265 ft 235 kts 184°
2026-05-04 07:18 46.29150 -44.76296 3262 ft 235 kts 185°
2026-05-04 07:19 46.27534 -44.76328 3254 ft 234 kts 184°
2026-05-04 07:19 46.25892 -44.76356 3249 ft 234 kts 185°
2026-05-04 07:19 46.24256 -44.76389 3240 ft 233 kts 184°
2026-05-04 07:19 46.22640 -44.76422 3231 ft 234 kts 184°
2026-05-04 07:20 46.21032 -44.76443 3222 ft 233 kts 184°
2026-05-04 07:20 46.19400 -44.76470 3214 ft 234 kts 185°
2026-05-04 07:20 46.17787 -44.76514 3213 ft 233 kts 185°
2026-05-04 07:20 46.16148 -44.76546 3207 ft 236 kts 185°
2026-05-04 07:22 46.04796 -44.76795 3149 ft 232 kts 185°
2026-05-04 07:22 46.03176 -44.76827 3135 ft 232 kts 184°
2026-05-04 07:23 46.01567 -44.76858 3133 ft 233 kts 185°
2026-05-04 07:23 45.99938 -44.76894 3123 ft 233 kts 185°
2026-05-04 07:23 45.98325 -44.76926 3110 ft 234 kts 185°
2026-05-04 07:23 45.96684 -44.76957 3106 ft 234 kts 184°
2026-05-04 07:24 45.95067 -44.76985 3099 ft 233 kts 184°
2026-05-04 07:24 45.93437 -44.77015 3088 ft 233 kts 185°
2026-05-04 07:24 45.91808 -44.77051 3087 ft 234 kts 185°
2026-05-04 07:24 45.90192 -44.77088 3059 ft 234 kts 184°
2026-05-04 07:25 45.88550 -44.77123 3062 ft 236 kts 185°
2026-05-04 07:26 45.77017 -44.77387 3002 ft 238 kts 185°
2026-05-04 07:27 45.75360 -44.77426 2990 ft 238 kts 185°
2026-05-04 07:27 45.73726 -44.77466 2982 ft 238 kts 184°
2026-05-04 07:27 45.72069 -44.77505 2974 ft 238 kts 184°
2026-05-04 07:27 45.70399 -44.77546 2962 ft 239 kts 185°
2026-05-04 07:28 45.68730 -44.77585 2956 ft 238 kts 185°
2026-05-04 07:28 45.67094 -44.77625 2942 ft 239 kts 184°
2026-05-04 07:28 45.65424 -44.77668 2940 ft 239 kts 184°
2026-05-04 07:28 45.63758 -44.77707 2934 ft 239 kts 185°
2026-05-04 07:29 45.62091 -44.77746 2925 ft 240 kts 184°